Weather reports worldwide

Advertisment
Beauvechain, Belgium (6458): temperature & dewpoint: 20.10.2020 10:00:00 - 26.10.2020 10:00:00 (CET)Beauvechain, Belgium (6458): wind speed & gusts: 20.10.2020 10:00:00 - 26.10.2020 10:00:00 (CET)Beauvechain, Belgium (6458): wind direction: 20.10.2020 10:00:00 - 26.10.2020 10:00:00 (CET)Beauvechain, Belgium (6458): reduced air pressure: 20.10.2020 10:00:00 - 26.10.2020 10:00:00 (CET)Beauvechain, Belgium (6458): visibility: 20.10.2020 10:00:00 - 26.10.2020 10:00:00 (CET)
Date & Time tt [°C] td [°C] ff [km/h] ff [kn] fx [km/h] fx [kn] dd ppp [hPa] vv [km]
26.10.2020 10:00:00 9,2 6,1 29 16 - - SW 1002,0 20
26.10.2020 09:00:00 9,0 6,1 22 12 29 16 SW 1001,7 20
26.10.2020 08:00:00 8,8 6,5 22 12 32 18 SSW 1001,7 20
26.10.2020 07:00:00 8,6 6,5 18 10 - - SSW 1001,1 20
26.10.2020 06:00:00 8,5 6,9 14 8 25 14 SSW 1000,6 20
26.10.2020 05:00:00 9,0 7,4 14 8 22 12 SSW 1000,7 20
26.10.2020 04:00:00 9,2 7,8 14 8 - - SSW 1000,8 20
26.10.2020 03:00:00 9,2 7,7 14 8 25 14 SSW 1000,8 20
26.10.2020 02:00:00 9,6 8,2 14 8 25 14 SW 1000,7 20
26.10.2020 01:00:00 9,8 8,3 14 8 - - SSW 1001,0 20
26.10.2020 00:00:00 9,7 8,4 11 6 25 14 SSW 1001,1 20
25.10.2020 23:00:00 10,1 8,9 11 6 25 14 S 1001,1 15
25.10.2020 22:00:00 10,3 8,4 14 8 - - S 1001,6 20
25.10.2020 21:00:00 10,1 8,4 14 8 25 14 S 1001,7 20
25.10.2020 20:00:00 10,3 8,5 18 10 29 16 S 1001,8 20
25.10.2020 19:00:00 10,7 8,7 18 10 - - SSW 1002,1 20
25.10.2020 18:00:00 11,0 8,9 18 10 29 16 SSW 1002,1 20
25.10.2020 17:00:00 11,3 8,7 22 12 32 18 S 1001,7 20
25.10.2020 16:00:00 11,5 9,2 18 10 - - S 1001,7 20
25.10.2020 15:00:00 11,6 9,2 18 10 29 16 S 1001,6 20
25.10.2020 14:00:00 11,6 9,2 22 12 29 16 SSW 1002,1 20
25.10.2020 13:00:00 11,6 9,8 18 10 - - SSW 1002,7 20
25.10.2020 12:00:00 11,6 10,2 24 13 32 18 S 1002,3 10
25.10.2020 11:00:00 11,8 10,9 14 8 36 19 SW 1002,5 20
25.10.2020 10:00:00 12,0 10,5 22 12 - - SSW 1002,2 15
25.10.2020 09:00:00 11,7 10,4 22 12 43 23 S 1002,0 20
25.10.2020 08:00:00 11,6 10,6 25 14 43 23 S 1002,7 9
25.10.2020 07:00:00 12,1 10,4 26 14 - - SSW 1002,5 10
25.10.2020 06:00:00 12,6 10,3 36 19 65 35 SSW 1002,2 17
25.10.2020 05:00:00 14,4 9,4 32 18 54 29 S 1002,0 20
25.10.2020 04:00:00 14,1 9,9 29 16 - - S 1002,1 20
25.10.2020 03:00:00 14,5 9,9 32 18 50 27 S 1003,2 20
25.10.2020 02:00:00 14,6 10,1 36 19 50 27 S 1004,0 20
25.10.2020 01:00:00 - - - - - - - - -
25.10.2020 00:00:00 14,8 10,8 36 19 58 31 SSW 1005,3 20
24.10.2020 23:00:00 15,1 10,9 36 19 54 29 SSW 1005,7 20
24.10.2020 22:00:00 15,1 11,3 29 16 - - SSW 1006,2 20
24.10.2020 21:00:00 15,0 11,6 32 18 50 27 S 1006,7 20
24.10.2020 20:00:00 14,8 11,7 32 18 47 25 S 1007,5 20
24.10.2020 19:00:00 14,5 12,0 32 18 - - S 1008,1 20
24.10.2020 18:00:00 14,3 11,5 29 16 47 25 S 1008,6 10
24.10.2020 17:00:00 14,3 11,9 29 16 43 23 SSW 1009,2 20
24.10.2020 16:00:00 14,8 11,6 26 14 - - S 1009,7 10
24.10.2020 15:00:00 13,8 11,8 29 16 43 23 S 1010,3 20
24.10.2020 14:00:00 13,5 11,8 29 16 43 23 S 1011,0 8
24.10.2020 13:00:00 13,9 11,1 28 15 - - SSW 1011,6 10
24.10.2020 12:00:00 14,1 10,5 32 18 47 25 SSW 1012,0 20
24.10.2020 11:00:00 14,0 10,2 32 18 47 25 SSW 1012,2 20
24.10.2020 10:00:00 12,3 10,6 29 16 - - SSW 1012,2 20
24.10.2020 09:00:00 12,1 10,6 25 14 40 21 SSW 1012,2 20
24.10.2020 08:00:00 11,5 10,5 22 12 32 18 SSW 1012,1 10
24.10.2020 07:00:00 12,1 9,8 22 12 - - SSW 1012,2 14
24.10.2020 06:00:00 12,0 10,0 25 14 40 21 SSW 1012,5 20
24.10.2020 05:00:00 11,9 10,0 22 12 32 18 SSW 1012,7 20
24.10.2020 04:00:00 12,1 10,1 18 10 - - SSW 1012,6 20
24.10.2020 03:00:00 12,5 10,2 18 10 25 14 SSW 1013,1 20
24.10.2020 02:00:00 12,5 10,6 14 8 25 14 SW 1013,0 20
24.10.2020 01:00:00 12,4 10,6 14 8 - - SW 1012,7 20
24.10.2020 00:00:00 12,1 10,3 14 8 22 12 SW 1013,0 20
23.10.2020 23:00:00 12,7 10,3 18 10 29 16 SW 1013,2 10
23.10.2020 22:00:00 13,0 10,4 18 10 - - SW 1012,5 20
23.10.2020 21:00:00 13,6 10,6 11 6 18 10 SSW 1011,6 20
23.10.2020 20:00:00 13,8 10,7 14 8 18 10 SSW 1011,5 20
23.10.2020 19:00:00 13,5 11,0 11 6 - - SSW 1011,2 20
23.10.2020 18:00:00 14,4 11,2 14 8 22 12 SSW 1011,0 20
23.10.2020 17:00:00 15,5 12,2 11 6 18 10 SW 1010,6 20
23.10.2020 16:00:00 16,5 12,6 11 6 - - SW 1010,2 20
23.10.2020 15:00:00 16,7 13,0 14 8 25 14 SW 1010,0 20
23.10.2020 14:00:00 15,5 13,9 21 11 25 14 SW 1010,2 10
23.10.2020 13:00:00 14,8 13,9 14 8 - - SW 1010,3 15
23.10.2020 12:00:00 14,6 13,9 13 7 22 12 SSW 1010,7 10
23.10.2020 11:00:00 14,3 13,6 11 6 22 12 SW 1010,7 13
23.10.2020 10:00:00 14,1 13,5 11 6 - - SSW 1010,7 10
23.10.2020 09:00:00 14,1 13,4 11 6 14 8 SSW 1010,7 10
23.10.2020 08:00:00 13,8 13,3 4 2 11 6 N 1010,7 10
23.10.2020 07:00:00 13,6 13,0 4 2 - - N 1010,6 13
23.10.2020 06:00:00 13,5 12,9 4 2 7 4 - 1010,7 10
23.10.2020 05:00:00 12,9 12,5 4 2 4 2 N 1011,0 8
23.10.2020 04:00:00 13,6 12,9 4 2 - - N 1011,6 10
23.10.2020 03:00:00 13,6 13,1 4 2 4 2 N 1011,7 11
23.10.2020 02:00:00 13,3 12,8 2 1 4 2 - 1012,3 9
23.10.2020 01:00:00 12,5 11,9 2 1 - - - 1012,7 3,1
23.10.2020 00:00:00 13,1 12,5 2 1 4 2 - 1012,7 0,5
22.10.2020 23:00:00 13,1 12,7 4 2 4 2 N 1012,7 7
22.10.2020 22:00:00 13,0 12,3 2 1 - - - 1012,8 7
22.10.2020 21:00:00 13,8 13,0 7 4 14 8 SSW 1012,2 14
22.10.2020 20:00:00 14,3 13,2 11 6 11 6 SSW 1012,0 10
22.10.2020 19:00:00 14,8 13,0 7 4 - - WSW 1012,1 20
22.10.2020 18:00:00 15,5 12,9 11 6 22 12 SW 1011,7 20
22.10.2020 17:00:00 16,6 13,1 14 8 29 16 SW 1011,1 20
22.10.2020 16:00:00 17,3 13,0 18 10 - - SW 1011,1 20
22.10.2020 15:00:00 17,3 12,9 25 14 36 19 SW 1010,7 20
22.10.2020 14:00:00 16,9 13,3 14 8 22 12 SW 1011,2 20
22.10.2020 13:00:00 16,6 12,9 14 8 - - SW 1011,5 20
22.10.2020 12:00:00 16,8 13,0 14 8 29 16 SW 1011,8 20
22.10.2020 11:00:00 15,8 13,1 18 10 29 16 SSW 1011,8 10
22.10.2020 10:00:00 15,6 13,0 16 9 - - SSW 1012,0 10
22.10.2020 09:00:00 15,0 12,9 15 8 29 16 SSW 1011,8 10
22.10.2020 08:00:00 14,3 12,3 22 12 29 16 SSW 1011,1 20
22.10.2020 07:00:00 14,1 12,0 14 8 - - SSW 1010,2 20
22.10.2020 06:00:00 14,0 11,7 14 8 25 14 SSW 1010,1 20
22.10.2020 05:00:00 14,0 11,6 14 8 22 12 SSW 1009,8 20
22.10.2020 04:00:00 14,0 11,6 14 8 - - SSW 1010,0 20
22.10.2020 03:00:00 14,1 11,5 18 10 29 16 SSW 1009,7 20
22.10.2020 02:00:00 14,1 11,4 14 8 22 12 SSW 1009,6 20
22.10.2020 01:00:00 15,1 11,8 18 10 - - SW 1009,2 20
22.10.2020 00:00:00 16,1 12,0 18 10 36 19 SW 1008,3 20
21.10.2020 23:00:00 16,7 12,5 18 10 29 16 SSW 1007,8 20
21.10.2020 22:00:00 17,0 12,5 18 10 - - SW 1007,2 20
21.10.2020 21:00:00 17,3 11,7 25 14 47 25 SW 1006,0 20
21.10.2020 20:00:00 17,5 12,6 29 16 47 25 SW 1005,0 20
21.10.2020 19:00:00 17,9 13,0 32 18 - - SSW 1003,8 20
21.10.2020 18:00:00 18,6 12,5 32 18 54 29 SSW 1002,7 20
21.10.2020 17:00:00 19,1 12,4 41 22 68 37 SSW 1001,5 10
21.10.2020 16:00:00 19,6 12,4 47 25 - - SSW 1000,6 20
21.10.2020 15:00:00 19,7 12,4 47 25 61 33 SSW 999,9 20
21.10.2020 14:00:00 19,5 12,1 47 25 79 43 SSW 999,1 20
21.10.2020 13:00:00 19,7 11,4 50 27 - - SSW 998,7 20
21.10.2020 12:00:00 19,0 10,8 47 25 72 39 S 999,8 20
21.10.2020 11:00:00 16,5 10,6 36 19 54 29 S 1000,0 20
21.10.2020 10:00:00 14,1 10,3 25 14 - - S 1000,8 20
21.10.2020 09:00:00 12,8 10,8 22 12 32 18 S 1002,2 12
21.10.2020 08:00:00 12,6 10,8 22 12 29 16 S 1002,3 7
21.10.2020 07:00:00 12,5 10,9 14 8 - - SSE 1002,2 20
21.10.2020 06:00:00 12,1 11,0 11 6 22 12 S 1003,0 13
21.10.2020 05:00:00 12,1 10,8 15 8 25 14 S 1003,3 7
21.10.2020 04:00:00 12,3 11,0 18 10 - - S 1003,8 17
21.10.2020 03:00:00 12,8 11,2 14 8 29 16 S 1004,5 20
21.10.2020 02:00:00 13,1 11,7 14 8 29 16 S 1005,3 18
21.10.2020 01:00:00 13,5 11,7 14 8 - - S 1005,6 20
21.10.2020 00:00:00 13,3 12,0 14 8 29 16 S 1006,2 20
20.10.2020 23:00:00 13,6 12,0 18 10 29 16 S 1006,7 20
20.10.2020 22:00:00 13,3 12,0 18 10 - - S 1007,2 19
20.10.2020 21:00:00 - - - - - - - - -
20.10.2020 20:00:00 13,6 12,1 18 10 32 18 S 1008,0 20
20.10.2020 19:00:00 13,8 12,3 22 12 - - S 1008,1 20
20.10.2020 18:00:00 14,1 12,2 25 14 36 19 S 1007,8 20
20.10.2020 17:00:00 14,3 12,2 22 12 36 19 SSW 1007,8 20
20.10.2020 16:00:00 15,0 11,8 28 15 - - S 1008,3 10
20.10.2020 15:00:00 14,6 11,2 29 16 40 21 SSW 1008,7 20
20.10.2020 14:00:00 15,6 9,9 29 16 40 21 SSW 1008,5 20
20.10.2020 13:00:00 15,2 10,0 22 12 - - SSW 1008,2 20
20.10.2020 12:00:00 14,8 10,0 29 16 40 21 S 1008,7 20
20.10.2020 11:00:00 13,5 9,5 25 14 36 19 SSW 1008,7 20
20.10.2020 10:00:00 13,1 8,6 25 14 - - S 1008,3 20

tt = temperature
td = dewpoint
ff = wind speed
fx = gusts
dd = wind direction
ppp = reduced air pressure
vv = visibility

Next stations